CARTOSAT-2B

Last updated on Mon Jun 22 2026 00:02:51 GMT+0000 (Coordinated Universal Time)

1 36795U 10035A 26172.46754234 .00000542 00000+0 81042-4 0 9991 2 36795 97.9947 222.9908 0011566 169.8570 190.2877 14.78666375860487
UTC large
Height (km)
Speed (km/s)
/
Latitude / Longitude
Inclination (degrees)
Orbital Period (minutes)
Azimuth
Elevation
Range (km)
Doppler Factor

Next 0 passes for location: London (51.5072 / 0.1276)

No passes found over London.
CARTOSAT-2B